GW1943 Weather Reports


time (UTC)temp
F
wind
direction
speed
knots
gust
knots
rain 1hr
in
rain 24hr
in
rain mn
in
humidity
%
barometer
mb
20260509105119 50 212 0.0 0.0 0.00 0.00 0.00 94 1023.6
20260509104616 50 212 0.0 0.0 0.00 0.00 0.00 93 1023.5
20260509104112 50 212 0.0 0.0 0.00 0.00 0.00 93 1023.7
20260509103610 51 212 0.0 0.0 0.00 0.00 0.00 92 1023.9
20260509103108 51 212 0.0 0.0 0.00 0.00 0.00 92 1023.6
20260509102605 52 212 0.0 0.0 0.00 0.00 0.00 91 1023.9
20260509102102 52 212 0.0 0.0 0.00 0.00 0.00 91 1024.0
20260509101558 52 212 0.0 0.0 0.00 0.00 0.00 91 1023.8
20260509101055 52 212 0.0 0.0 0.00 0.00 0.00 91 1023.8
20260509100552 52 212 0.0 0.0 0.00 0.00 0.00 91 1024.0
20260509100050 52 212 0.0 0.0 0.00 0.00 0.00 91 1023.9
20260509095546 52 212 0.0 0.9 0.00 0.00 0.00 90 1024.2
20260509095044 52 212 0.0 0.0 0.00 0.00 0.00 90 1024.2
20260509094539 52 212 0.0 0.0 0.00 0.00 0.00 90 1023.9
20260509094037 53 212 0.0 0.0 0.00 0.00 0.00 90 1024.0
20260509093535 53 212 0.0 0.0 0.00 0.00 0.00 89 1024.1
20260509093032 53 211 0.0 0.0 0.00 0.00 0.00 89 1024.1
20260509092530 53 212 0.0 0.0 0.00 0.00 0.00 89 1024.2
20260509092029 53 212 0.0 0.9 0.00 0.00 0.00 88 1024.4
20260509091526 53 213 0.0 2.6 0.00 0.00 0.00 88 1024.3
20260509091022 53 212 0.9 1.7 0.00 0.00 0.00 88 1024.3
20260509090520 53 213 0.0 1.7 0.00 0.00 0.00 87 1024.2
20260509090017 53 215 0.9 2.6 0.00 0.00 0.00 87 1024.4
20260509085514 53 212 0.0 1.7 0.00 0.00 0.00 88 1024.2
20260509085010 53 213 0.0 0.0 0.00 0.00 0.00 88 1024.3
20260509084507 53 211 0.0 1.7 0.00 0.00 0.00 88 1024.2
20260509084004 53 214 0.0 0.9 0.00 0.00 0.00 88 1024.2
20260509083502 52 212 0.0 0.0 0.00 0.00 0.00 89 1024.0
20260509082958 52 214 0.0 0.0 0.00 0.00 0.00 89 1024.1
20260509082456 52 215 0.9 1.7 0.00 0.00 0.00 90 1024.3
20260509081953 51 211 1.7 1.7 0.00 0.00 0.00 90 1024.2
20260509081450 51 213 0.0 0.9 0.00 0.00 0.00 90 1024.1
20260509080946 51 212 0.0 0.0 0.00 0.00 0.00 90 1024.2
20260509080445 51 212 0.0 2.6 0.00 0.00 0.00 90 1024.1
20260509075943 51 213 0.0 0.0 0.00 0.00 0.00 91 1024.2
20260509075439 51 213 0.0 0.0 0.00 0.00 0.00 92 1024.4
20260509074938 50 213 0.0 0.0 0.00 0.00 0.00 92 1024.0
20260509074435 50 213 0.0 0.0 0.00 0.00 0.00 92 1024.3
20260509073931 50 213 0.0 0.0 0.00 0.00 0.00 92 1024.3
20260509073427 50 213 0.0 0.0 0.00 0.00 0.00 92 1024.5
20260509072918 50 213 0.0 0.0 0.00 0.00 0.00 92 1024.2
20260509072415 50 213 0.0 0.0 0.00 0.00 0.00 91 1024.2
20260509071911 50 213 0.0 0.0 0.00 0.00 0.00 91 1024.1
20260509071409 50 212 0.0 0.0 0.00 0.00 0.00 91 1024.0
20260509070906 50 212 0.0 0.0 0.00 0.00 0.00 91 1024.2
20260509070403 50 212 0.0 0.0 0.00 0.00 0.00 91 1024.1
20260509065858 50 212 0.0 0.0 0.00 0.00 0.00 91 1023.9
20260509065355 50 212 0.0 0.0 0.00 0.00 0.00 90 1024.3
20260509064851 50 212 0.0 0.0 0.00 0.00 0.00 90 1024.1
20260509064349 51 212 0.0 0.0 0.00 0.00 0.00 90 1023.8
20260509063846 50 212 0.0 0.0 0.00 0.00 0.00 90 1024.0
20260509063342 50 212 0.0 0.0 0.00 0.00 0.00 90 1023.9
20260509062839 50 212 0.0 0.0 0.00 0.00 0.00 90 1023.7
20260509062336 50 212 0.0 0.0 0.00 0.00 0.00 90 1023.9
20260509061833 50 212 0.0 0.0 0.00 0.00 0.00 89 1023.9
20260509061332 51 212 0.0 0.0 0.00 0.00 0.00 89 1023.9
20260509060828 51 212 0.0 0.0 0.00 0.00 0.00 88 1023.9
20260509060325 51 212 0.0 0.0 0.00 0.00 0.00 88 1024.0
20260509055821 51 212 0.0 0.0 0.00 0.00 0.00 88 1023.8
20260509055316 51 212 0.0 0.0 0.00 0.00 0.00 88 1023.6
20260509054814 51 212 0.0 0.0 0.00 0.00 0.00 87 1023.7
20260509054310 51 212 0.0 0.0 0.00 0.00 0.00 87 1023.6
20260509053809 52 213 0.0 0.0 0.00 0.00 0.00 86 1023.7
20260509053305 52 213 0.0 0.0 0.00 0.00 0.00 85 1023.9
20260509052803 53 213 0.0 0.0 0.00 0.00 0.00 84 1023.6
20260509052301 53 213 0.0 0.0 0.00 0.00 0.00 83 1023.8
20260509051758 53 213 0.0 0.0 0.00 0.00 0.00 82 1023.7
20260509051256 53 213 0.0 0.0 0.00 0.00 0.00 82 1023.8
20260509050752 54 211 0.0 0.0 0.00 0.00 0.00 82 1023.8
20260509050249 54 213 0.9 0.9 0.00 0.00 0.00 81 1023.6
20260509045746 54 214 0.0 0.0 0.00 0.00 0.00 81 1023.8
20260509045243 54 216 0.0 0.0 0.00 0.00 0.00 80 1023.6
20260509044740 55 216 0.0 0.0 0.00 0.00 0.00 79 1023.7
20260509044238 55 216 0.0 0.0 0.00 0.00 0.00 78 1023.7
20260509043734 55 218 0.0 0.0 0.00 0.00 0.00 77 1023.5
20260509043230 56 211 0.0 0.9 0.00 0.00 0.00 77 1023.5
20260509042726 56 213 0.0 0.9 0.00 0.00 0.00 77 1023.4
20260509042222 56 210 0.0 2.6 0.00 0.00 0.00 75 1023.2
20260509041714 56 208 1.7 2.6 0.00 0.00 0.00 75 1023.5
20260509041211 56 213 0.0 0.9 0.00 0.00 0.00 75 1023.4
20260509040709 56 216 0.0 1.7 0.00 0.00 0.00 76 1023.5
20260509040206 56 211 0.0 1.7 0.00 0.00 0.00 76 1023.4
20260509035703 56 213 0.0 0.0 0.00 0.00 0.00 76 1023.2
20260509035159 56 213 0.0 0.0 0.00 0.00 0.00 75 1023.0
20260509034657 57 213 0.0 0.9 0.00 0.00 0.00 74 1023.2
20260509034154 57 211 0.0 0.0 0.00 0.00 0.00 74 1022.7
20260509033651 57 217 0.0 0.0 0.00 0.00 0.00 75 1022.5
20260509033148 57 217 0.0 0.9 0.00 0.00 0.00 73 1022.7
20260509032645 57 218 0.0 0.0 0.00 0.00 0.00 73 1022.9
20260509032142 58 214 0.0 0.0 0.00 0.00 0.00 72 1022.6
20260509031640 58 215 0.0 0.0 0.00 0.00 0.00 72 1022.7
20260509031137 59 222 0.0 0.9 0.00 0.00 0.00 70 1022.5
20260509030635 59 242 0.9 1.7 0.00 0.00 0.00 68 1022.6
20260509030132 59 226 2.6 2.6 0.00 0.00 0.00 68 1022.4
20260509025628 60 226 0.9 2.6 0.00 0.00 0.00 68 1022.4
20260509025124 60 226 0.9 1.7 0.00 0.00 0.00 68 1022.5
20260509024619 60 215 0.9 5.2 0.00 0.00 0.00 67 1022.4
20260509024115 61 234 2.6 4.3 0.00 0.00 0.00 65 1022.4
20260509023614 61 241 2.6 4.3 0.00 0.00 0.00 64 1022.4
20260509023110 61 244 0.9 4.3 0.00 0.00 0.00 63 1022.6
20260509022607 62 217 2.6 4.3 0.00 0.00 0.00 61 1022.5
20260509022105 62 246 2.6 2.6 0.00 0.00 0.00 61 1022.4
20260509021601 62 230 2.6 4.3 0.00 0.00 0.00 60 1022.5
20260509021058 62 255 0.9 1.7 0.00 0.00 0.00 61 1022.5
20260509020556 62 213 1.7 2.6 0.00 0.00 0.00 61 1022.4
20260509020053 62 228 1.7 5.2 0.00 0.00 0.00 60 1022.4
20260509015547 63 228 0.9 1.7 0.00 0.00 0.00 60 1022.2
20260509015043 63 216 0.9 1.7 0.00 0.00 0.00 59 1022.3
20260509014540 63 235 2.6 5.2 0.00 0.00 0.00 58 1022.2
20260509014036 63 245 0.9 4.3 0.00 0.00 0.00 59 1022.4
20260509013533 64 263 2.6 2.6 0.00 0.00 0.00 57 1022.3
20260509013029 64 221 0.9 2.6 0.00 0.00 0.00 57 1022.2
20260509012526 63 219 2.6 2.6 0.00 0.00 0.00 56 1022.4
20260509012022 64 243 2.6 2.6 0.00 0.00 0.00 57 1022.4
20260509011521 64 255 1.7 2.6 0.00 0.00 0.00 58 1022.4
20260509011018 64 225 2.6 2.6 0.00 0.00 0.00 57 1022.4
20260509010515 64 238 2.6 2.6 0.00 0.00 0.00 55 1022.4
20260509010012 64 215 2.6 4.3 0.00 0.00 0.00 55 1022.5
20260509005510 64 228 1.7 2.6 0.00 0.00 0.00 57 1022.5
20260509005009 64 234 2.6 5.2 0.00 0.00 0.00 57 1022.5
20260509004507 64 269 2.6 5.2 0.00 0.00 0.00 56 1022.5
20260509004004 64 281 3.5 4.3 0.00 0.00 0.00 57 1022.6
20260509003502 64 263 3.5 5.2 0.00 0.00 0.00 54 1022.5
20260509002959 64 212 2.6 6.1 0.00 0.00 0.00 57 1022.6
20260509002456 64 216 3.5 5.2 0.00 0.00 0.00 54 1022.4
20260509001953 64 274 2.6 5.2 0.00 0.00 0.00 54 1022.6
20260509001450 65 216 0.9 5.2 0.00 0.00 0.00 55 1022.6
20260509000947 65 221 1.7 7.0 0.00 0.00 0.00 54 1022.5
20260509000447 65 217 2.6 4.3 0.00 0.00 0.00 54 1022.5
20260508235935 65 263 2.6 5.2 0.00 0.00 0.00 53 1022.4
20260508235433 64 216 1.7 4.3 0.00 0.00 0.00 55 1022.4
20260508234929 65 231 0.9 2.6 0.00 0.00 0.00 55 1022.2
20260508234426 65 304 3.5 5.2 0.00 0.00 0.00 51 1022.4
20260508233924 65 220 0.0 5.2 0.00 0.00 0.00 53 1022.3
20260508233423 64 216 0.9 2.6 0.00 0.00 0.00 54 1022.5
20260508232919 64 207 3.5 6.1 0.00 0.00 0.00 53 1022.4
20260508232416 65 220 2.6 5.2 0.00 0.00 0.00 53 1022.4
20260508231914 64 254 2.6 4.3 0.00 0.00 0.00 51 1022.4
20260508231411 64 249 1.7 4.3 0.00 0.00 0.00 53 1022.3
20260508230908 63 199 2.6 4.3 0.00 0.00 0.00 54 1022.6
20260508230404 64 218 3.5 5.2 0.00 0.00 0.00 53 1022.6
20260508225901 63 222 3.5 6.1 0.00 0.00 0.00 54 1022.5
20260508225358 63 236 1.7 5.2 0.00 0.00 0.00 55 1022.6
20260508224855 63 242 2.6 6.1 0.00 0.00 0.00 54 1022.5
20260508224353 64 260 1.7 4.3 0.00 0.00 0.00 54 1022.6
20260508223850 62 240 3.5 5.2 0.00 0.00 0.00 55 1022.6
20260508223348 62 244 1.7 4.3 0.00 0.00 0.00 58 1022.5
20260508222845 63 217 0.9 2.6 0.00 0.00 0.00 57 1022.4
20260508222342 64 208 3.5 5.2 0.00 0.00 0.00 53 1022.4
20260508221838 65 243 2.6 5.2 0.00 0.00 0.00 53 1022.5
20260508221334 64 221 3.5 7.0 0.00 0.00 0.00 55 1022.6
20260508220831 62 232 0.9 4.3 0.00 0.00 0.00 59 1022.4
20260508220327 62 208 1.7 4.3 0.00 0.00 0.00 54 1022.5
20260508215824 61 240 2.6 2.6 0.00 0.00 0.00 57 1022.6
20260508215320 61 208 1.7 2.6 0.00 0.00 0.00 57 1022.5
20260508214817 62 203 1.7 7.0 0.00 0.00 0.00 56 1022.4
20260508214315 61 207 1.7 4.3 0.00 0.00 0.00 58 1022.4
20260508213811 62 218 3.5 5.2 0.00 0.00 0.00 57 1022.5
20260508213308 61 205 3.5 4.3 0.00 0.00 0.00 58 1022.6
20260508212804 60 220 2.6 5.2 0.00 0.00 0.00 59 1022.4
20260508212300 60 243 3.5 5.2 0.00 0.00 0.00 59 1022.6
20260508211756 61 281 2.6 6.1 0.00 0.00 0.00 58 1022.4
20260508211252 62 226 3.5 6.1 0.00 0.00 0.00 58 1022.6
20260508210750 60 231 1.7 4.3 0.00 0.00 0.00 60 1022.4
20260508210247 60 237 3.5 7.0 0.00 0.00 0.00 59 1022.3
20260508205744 61 236 2.6 5.2 0.00 0.00 0.00 59 1022.4
20260508205240 62 215 2.6 2.6 0.00 0.00 0.00 57 1022.4
20260508204736 60 211 1.7 4.3 0.00 0.00 0.00 59 1022.3
20260508204233 61 207 2.6 7.0 0.00 0.00 0.00 59 1022.3
20260508203729 61 210 3.5 7.0 0.00 0.00 0.00 59 1022.4
20260508203225 60 206 3.5 5.2 0.00 0.00 0.00 61 1022.4
20260508202721 57 241 2.6 6.1 0.00 0.00 0.00 65 1022.3
20260508202219 57 214 2.6 6.1 0.00 0.00 0.00 66 1022.4
20260508201716 57 239 2.6 7.8 0.00 0.00 0.00 66 1022.3
20260508201212 57 209 3.5 7.8 0.00 0.00 0.00 64 1022.1
20260508200709 57 245 4.3 7.8 0.00 0.00 0.00 65 1022.4
20260508200205 57 264 2.6 5.2 0.00 0.00 0.00 65 1022.0
20260508195702 57 207 1.7 5.2 0.00 0.00 0.00 64 1022.0
20260508195158 56 239 2.6 7.0 0.00 0.00 0.00 65 1022.2
20260508194654 57 277 3.5 7.0 0.00 0.00 0.00 65 1022.1
20260508194152 59 213 0.9 5.2 0.00 0.00 0.00 61 1022.1
20260508193649 58 216 2.6 5.2 0.00 0.00 0.00 65 1022.3
20260508193145 56 220 1.7 4.3 0.00 0.00 0.00 69 1022.2
20260508192642 56 266 2.6 8.7 0.00 0.00 0.00 67 1022.1
20260508192139 56 213 4.3 7.8 0.00 0.00 0.00 68 1022.2
20260508191636 57 241 2.6 4.3 0.00 0.00 0.00 68 1022.1
20260508191133 56 226 2.6 7.0 0.00 0.00 0.00 70 1022.0
20260508190630 55 253 5.2 7.0 0.00 0.00 0.00 71 1022.0
20260508190126 55 237 3.5 6.1 0.00 0.00 0.00 70 1022.0
20260508185624 55 241 2.6 6.1 0.00 0.00 0.00 72 1022.2
20260508185121 55 227 1.7 7.0 0.00 0.00 0.00 72 1022.0
20260508184618 55 228 2.6 6.1 0.00 0.00 0.00 72 1022.1
20260508184115 54 264 5.2 7.0 0.00 0.00 0.00 73 1021.9
20260508183612 54 210 2.6 6.1 0.00 0.00 0.00 74 1021.9
20260508183107 54 218 3.5 6.1 0.00 0.00 0.00 73 1022.0
20260508182604 55 242 4.3 7.8 0.00 0.00 0.00 73 1022.1
20260508182100 55 212 1.7 2.6 0.00 0.00 0.00 71 1021.6
20260508181555 55 220 2.6 6.1 0.00 0.00 0.00 72 1021.7
20260508181054 55 229 2.6 6.1 0.00 0.00 0.00 71 1021.6
20260508180550 55 210 1.7 2.6 0.00 0.00 0.00 72 1021.6
20260508180046 54 213 4.3 6.1 0.00 0.00 0.00 71 1021.6
20260508175543 54 210 1.7 6.1 0.00 0.00 0.00 76 1021.6
20260508175040 54 211 2.6 4.3 0.00 0.00 0.00 77 1021.7
20260508174538 53 216 1.7 4.3 0.00 0.00 0.00 79 1021.7
20260508174034 53 222 0.9 4.3 0.00 0.00 0.00 78 1021.5
20260508173531 53 212 1.7 2.6 0.00 0.00 0.00 78 1021.5
20260508173027 53 217 1.7 4.3 0.00 0.00 0.00 78 1021.3
20260508172525 54 234 0.9 2.6 0.00 0.00 0.00 77 1021.2
20260508172021 53 218 0.0 4.3 0.00 0.00 0.00 77 1021.2
20260508171518 53 218 0.0 1.7 0.00 0.00 0.00 80 1021.0
20260508171014 53 222 2.6 2.6 0.00 0.00 0.00 79 1021.0
20260508170512 53 215 0.9 1.7 0.00 0.00 0.00 79 1021.1
20260508170009 53 209 0.0 2.6 0.00 0.00 0.00 80 1020.8
20260508165506 53 230 2.6 2.6 0.00 0.00 0.00 79 1020.9
20260508165003 53 220 0.9 1.7 0.00 0.00 0.00 79 1020.9
20260508164459 53 215 0.0 1.7 0.00 0.00 0.00 80 1020.7
20260508163956 52 210 0.0 5.2 0.00 0.00 0.00 80 1020.7
20260508163454 53 220 0.0 0.0 0.00 0.00 0.00 81 1020.7
20260508162949 53 220 0.0 0.9 0.00 0.00 0.00 80 1020.8
20260508162447 53 218 0.0 0.0 0.00 0.00 0.00 80 1020.7
20260508161944 53 218 0.0 0.0 0.00 0.00 0.00 81 1020.6
20260508161441 53 217 0.0 1.7 0.00 0.00 0.00 80 1020.6
20260508160938 53 240 1.7 2.6 0.00 0.00 0.00 79 1020.4
20260508160437 53 211 1.7 2.6 0.00 0.00 0.00 78 1020.6
20260508155933 53 211 1.7 2.6 0.00 0.00 0.00 78 1020.5
20260508155430 53 215 0.0 2.6 0.00 0.00 0.00 79 1020.7
20260508154927 53 217 0.0 4.3 0.00 0.00 0.00 77 1020.5
20260508154425 52 214 0.9 1.7 0.00 0.00 0.00 79 1020.6
20260508153921 52 208 0.9 2.6 0.00 0.00 0.00 78 1020.7
20260508153418 52 213 0.0 2.6 0.00 0.00 0.00 80 1020.8
20260508152914 52 219 0.0 4.3 0.00 0.00 0.00 80 1020.8
20260508152411 52 218 0.9 1.7 0.00 0.00 0.00 80 1020.9
20260508151907 52 221 1.7 4.3 0.00 0.00 0.00 80 1020.8
20260508151404 52 215 0.9 0.9 0.00 0.00 0.00 81 1021.0
20260508150900 52 212 0.9 4.3 0.00 0.00 0.00 81 1020.7
20260508150357 51 211 0.0 1.7 0.00 0.00 0.00 82 1020.7
20260508145853 51 206 0.9 5.2 0.00 0.00 0.00 82 1020.9
20260508145349 51 207 1.7 5.2 0.00 0.00 0.00 83 1020.7
20260508144846 51 208 0.9 4.3 0.00 0.00 0.00 84 1020.6
20260508144344 51 214 1.7 2.6 0.00 0.00 0.00 86 1020.6
20260508143842 50 212 1.7 2.6 0.00 0.00 0.00 86 1020.5
20260508143338 50 216 1.7 5.2 0.00 0.00 0.00 86 1020.4
20260508142835 50 213 0.0 2.6 0.00 0.00 0.00 87 1020.2
20260508142332 50 198 1.7 4.3 0.00 0.00 0.00 87 1020.1
20260508141828 50 210 0.0 2.6 0.00 0.00 0.00 88 1020.0
20260508141326 50 213 0.0 0.9 0.00 0.00 0.00 89 1020.0
20260508140823 50 213 0.0 1.7 0.00 0.00 0.00 88 1020.0
20260508140320 50 204 0.0 0.9 0.00 0.00 0.00 88 1019.5
20260508135815 50 213 1.7 4.3 0.00 0.00 0.00 88 1019.4
20260508135312 50 212 0.0 2.6 0.00 0.00 0.00 88 1019.6
20260508134808 50 198 0.0 1.7 0.00 0.00 0.00 88 1019.4
20260508134305 50 209 0.0 4.3 0.00 0.00 0.00 88 1019.4
20260508133802 50 208 0.9 5.2 0.00 0.00 0.00 88 1019.2
20260508133259 50 209 0.0 1.7 0.00 0.00 0.00 89 1019.2
20260508132757 50 211 0.0 0.9 0.00 0.00 0.00 89 1019.3
20260508132254 50 215 0.0 4.3 0.00 0.00 0.00 89 1019.2
20260508131750 50 211 0.9 4.3 0.00 0.00 0.00 90 1019.1
20260508131246 50 213 0.9 0.9 0.00 0.00 0.00 90 1019.0
20260508130743 50 209 0.0 0.0 0.00 0.00 0.00 90 1018.7
20260508130240 50 209 0.0 0.0 0.00 0.00 0.00 90 1018.7
20260508125736 50 209 0.0 0.0 0.00 0.00 0.00 89 1018.8
20260508125232 50 209 0.0 0.0 0.00 0.00 0.00 89 1018.6
20260508124731 50 210 0.0 0.9 0.00 0.00 0.00 89 1018.8
20260508124228 50 208 0.0 1.7 0.00 0.00 0.00 89 1018.8
20260508123726 50 203 0.0 2.6 0.00 0.00 0.00 90 1018.8
20260508123223 50 206 0.0 0.9 0.00 0.00 0.00 90 1018.5
20260508122719 50 208 0.0 0.0 0.00 0.00 0.00 90 1018.6
20260508122216 50 209 0.0 0.0 0.00 0.00 0.00 90 1018.3
20260508121714 50 209 0.0 0.9 0.00 0.00 0.00 90 1018.5
20260508121213 50 208 0.0 0.0 0.00 0.00 0.00 90 1018.5
20260508120709 50 207 0.0 0.9 0.00 0.00 0.00 90 1018.7
20260508120207 50 206 0.0 0.0 0.00 0.00 0.00 90 1018.5
20260508115705 50 210 0.0 0.9 0.00 0.00 0.00 90 1018.6
20260508115202 50 214 0.0 1.7 0.00 0.00 0.00 90 1018.5
20260508114658 51 204 0.0 0.0 0.00 0.00 0.00 90 1018.3
20260508114155 51 209 0.0 0.9 0.00 0.00 0.00 90 1018.3
20260508113652 51 205 0.9 1.7 0.00 0.00 0.00 89 1018.2
20260508113150 51 214 0.0 4.3 0.00 0.00 0.00 89 1018.3
20260508112646 51 207 0.0 0.0 0.00 0.00 0.00 89 1018.4
20260508112143 51 208 0.0 0.0 0.00 0.00 0.00 89 1018.2
20260508111639 51 208 0.0 0.0 0.00 0.00 0.00 89 1018.0
20260508111137 51 208 0.0 0.0 0.00 0.00 0.00 89 1017.8
20260508110635 51 209 0.0 0.0 0.00 0.00 0.00 88 1018.0
20260508110131 51 212 0.0 0.9 0.00 0.00 0.00 88 1018.0
20260508105626 51 209 0.0 0.9 0.00 0.00 0.00 88 1018.0